Powrót do katalogu

HULIANWANG DIGUI-62

AktywnyŁącznośćPO
NORAD 65168·PAYLOAD·🇨🇳 China

Wystrzelony Aug 13, 2025 z Wenchang Space Launch Site

Loading…

Następne Przeloty (najbliższe 24 godziny)

TLE

ŚwieżeSource: Space-Track

Epoka: Sep 14, 2026, 21:31 UTC

1 65168U 25174E   26257.89713026  .00000014  00000-0 -10124-5 0  9992
2 65168  86.4921 221.5251 0002373  78.6177 281.5224 13.24401597 52666

Śledź HULIANWANG DIGUI-62 w czasie rzeczywistym z AllMySat

Download on the App Store